{"data":{"norad_id":87163,"epoch":"2026-05-22T12:33:49.476384Z","epoch_age_seconds":288771,"freshness":"STALE","line1":"1 87163U          26142.52348931  .00001132  00000+0  34619-3 0  9997","line2":"2 87163  65.5967 199.3430 0650619 353.0356   6.1973 13.64891022599450","mean_motion":13.64891022,"eccentricity":0.0650619,"inclination_deg":65.5967,"raan_deg":199.343,"arg_perigee_deg":353.0356,"mean_anomaly_deg":6.1973,"bstar":0.00034619,"rev_number":59945,"period_min":105.50292857007,"perigee_km":536.76529673205,"apogee_km":1499.1748546263,"semimajor_km":7396.1070756792,"source":"CELESTRAK","updated_at":"2026-05-25T13:38:11.437185Z"}}